Lander, WY

6:38 PM MST on January 16, 2018 (GMT -0700)
Hunt

Weather History for KLND - August, 2014

Change the Weather History Date:

Saturday, August 23, 2014

  Actual Average Record
Temperature  
Mean Temperature 56 °F 68 °F  
Max Temperature 67 °F 84 °F 95 °F (1961)
Min Temperature 45 °F 53 °F 33 °F (1899)
Degree Days  
Heating Degree Days 9 1  
Month to date heating degree days 14 11  
Since 1 June heating degree days 153 153  
Since 1 July heating degree days 17 27  
Growing Degree Days 6 (Base 50)    
Moisture  
Dew Point 48 °F    
Average Humidity 72    
Maximum Humidity 100    
Minimum Humidity 43    
Precipitation  
Precipitation 0.10 in 0.02 in 0.38 in (1987)
Month to date precipitation 1.13 0.48  
Year to date precipitation 6.54 8.75  
Snow  
Snow 0.00 in 0.00 in - ()
Month to date snowfall 0.0 0.0  
Since 1 June snowfall 0.0 0.1  
Since 1 July snowfall 0.0 0.0  
Snow Depth 0.00 in    
Sea Level Pressure  
Sea Level Pressure 29.89 in    
Wind  
Wind Speed 6 mph (NE)    
Max Wind Speed 21 mph    
Max Gust Speed 25 mph    
Visibility 9 miles    
Events Rain    
T = Trace of Precipitation, MM = Missing Value Source: NWS Daily Summary

Daily Weather History Graph

Daily Weather History Graph

Search for Another Location

Airport or City:

Trip Planner

Search our weather history database for the weather conditions in past years. The results will help you decide how hot, cold, wet, or windy it might be!

Date:

Astronomy

Aug. 23, 2014 Rise Set
Actual Time 6:29 AM MDT 8:04 PM MDT
Civil Twilight 6:00 AM MDT 8:33 PM MDT
Nautical Twilight 5:24 AM MDT 9:09 PM MDT
Astronomical Twilight 4:45 AM MDT 9:48 PM MDT
Moon 4:48 AM MDT (8/23) 6:51 PM MDT (8/23)
Length of Visible Light 14h 33m
Length of Day
13h 34m
Waning Crescent, 3% of the Moon is Illuminated
Aug 23
Waning Crescent
Aug 25
New
Sep 2
First Quarter
Sep 8
Full
Sep 15
Last Quarter

Hourly Weather History & Observations

Time (MDT) Temp. Dew Point Humidity Pressure Visibility Wind Dir Wind Speed Gust Speed Precip Events Conditions
12:53 AM 54.0 °F 53.1 °F 97% 29.88 in 7.0 mi SW 3.5 mph - 0.03 in Rain Light Rain
1:21 AM 53.1 °F 52.0 °F 96% 30.03 in 2.5 mi Calm Calm - 0.04 in Rain Rain
1:28 AM 53.1 °F 52.0 °F 96% 30.03 in 4.0 mi SW 3.5 mph - 0.05 in Rain Light Rain
1:53 AM 53.1 °F 52.0 °F 96% 29.84 in 5.0 mi SE 5.8 mph - 0.09 in Rain Light Rain
3:16 AM 53.1 °F 51.1 °F 93% 30.01 in 10.0 mi Calm Calm - N/A   Overcast
3:46 AM 53.1 °F 50.0 °F 89% 30.00 in 10.0 mi Calm Calm - N/A   Overcast
3:53 AM 53.1 °F 51.1 °F 93% 29.85 in 10.0 mi Calm Calm - N/A   Overcast
4:49 AM 53.6 °F 51.8 °F 94% 29.97 in 10.0 mi NNW 5.8 mph - 0.00 in   Overcast
5:32 AM 53.1 °F 51.1 °F 93% 29.97 in 10.0 mi NW 4.6 mph - N/A   Scattered Clouds
5:53 AM 52.0 °F 51.1 °F 97% 29.83 in 10.0 mi NW 4.6 mph - N/A   Clear
6:53 AM 52.0 °F 51.1 °F 97% 29.84 in 10.0 mi West 6.9 mph - N/A   Clear
7:53 AM 51.1 °F 51.1 °F 100% 29.86 in 6.0 mi SSE 3.5 mph - N/A   Partly Cloudy
8:53 AM 54.0 °F 52.0 °F 93% 29.85 in 10.0 mi SE 5.8 mph - N/A   Clear
9:53 AM 60.1 °F 54.0 °F 80% 29.81 in 10.0 mi ESE 8.1 mph - N/A   Clear
10:53 AM 61.0 °F 50.0 °F 67% 29.81 in 10.0 mi North 6.9 mph - N/A   Scattered Clouds
11:53 AM 66.0 °F 48.0 °F 52% 29.78 in 10.0 mi Variable 5.8 mph - N/A   Partly Cloudy
12:53 PM 63.0 °F 46.9 °F 56% 29.79 in 10.0 mi ESE 4.6 mph - N/A   Overcast
1:53 PM 60.1 °F 39.9 °F 47% 29.80 in 10.0 mi NW 17.3 mph - N/A   Mostly Cloudy
2:07 PM 55.9 °F 42.1 °F 60% 29.93 in 10.0 mi North 15.0 mph 25.3 mph 0.00 in Rain Light Rain
2:53 PM 62.6 °F 39.2 °F 42% 29.93 in 10.0 mi Variable 3.5 mph - N/A Rain Light Rain
3:37 PM 61.0 °F 46.0 °F 58% 29.94 in 10.0 mi North 13.8 mph - 0.00 in   Mostly Cloudy
3:53 PM 63.0 °F 45.0 °F 52% 29.81 in 10.0 mi NNW 13.8 mph 19.6 mph 0.00 in   Partly Cloudy
4:53 PM 64.0 °F 41.0 °F 43% 29.80 in 10.0 mi NNE 5.8 mph - N/A   Clear
5:53 PM 57.9 °F 44.1 °F 60% 29.85 in 10.0 mi NNE 9.2 mph - N/A   Partly Cloudy
6:53 PM 57.0 °F 45.0 °F 64% 29.87 in 10.0 mi SSE 6.9 mph - N/A   Scattered Clouds
7:53 PM 54.0 °F 45.0 °F 72% 29.91 in 10.0 mi ENE 12.7 mph - N/A   Partly Cloudy
8:53 PM 50.0 °F 45.0 °F 83% 29.94 in 10.0 mi SE 5.8 mph - N/A   Clear
9:53 PM 48.9 °F 44.1 °F 83% 29.92 in 10.0 mi East 4.6 mph - N/A   Clear
10:53 PM 46.9 °F 44.1 °F 90% 29.92 in 10.0 mi SSW 3.5 mph - N/A   Clear
11:53 PM 46.9 °F 43.0 °F 86% 29.91 in 10.0 mi Calm Calm - N/A   Clear